Weather History for Hyannis, MA

Change the Weather History Date:

Monday, January 20, 2014

  Actual Average Record
Temperature  
Mean Temperature 40 °F -  
Max Temperature 45 °F 35 °F 58 °F (1986)
Min Temperature 34 °F 18 °F -3 °F (1976)
Degree Days  
Heating Degree Days 25    
Moisture  
Dew Point 25 °F    
Average Humidity 59    
Maximum Humidity 78    
Minimum Humidity 46    
Precipitation  
Precipitation 0.00 in - - ()
Sea Level Pressure  
Sea Level Pressure 29.62 in    
Wind  
Wind Speed 14 mph (WSW)    
Max Wind Speed 22 mph    
Max Gust Speed 33 mph    
Visibility 10 miles    
Events      
Averages and records for this station are not official NWS values.
T = Trace of Precipitation, MM = Missing Value Source: NWS Daily Summary

Daily Weather History Graph

Daily Weather History Graph

Search for Another Location

Airport:

Trip Planner

Search our weather history database for the weather conditions in past years. The results will help you decide how hot, cold, wet, or windy it might be!

Date:

Astronomy

Jan. 20, 2014 Rise Set
Actual Time 7:03 AM EST 4:41 PM EST
Civil Twilight 6:32 AM EST 5:12 PM EST
Nautical Twilight 5:58 AM EST 5:46 PM EST
Astronomical Twilight 5:25 AM EST 6:19 PM EST
Moon 9:17 PM EST (1/20) 8:57 AM EST (1/20)
Length of Visible Light 10h 39m
Length of Day
9h 38m
Waning Gibbous, 83% of the Moon is Illuminated
Jan 20
Waning Gibbous
Jan 24
Last Quarter
Jan 30
New
Feb 6
First Quarter
Feb 14
Full

Hourly Weather History & Observations

Time (EST) Temp. Windchill Dew Point Humidity Pressure Visibility Wind Dir Wind Speed Gust Speed Precip Events Conditions
12:56 AM 37.0 °F 27.0 °F 25.0 °F 62% 29.59 in 10.0 mi WSW 18.4 mph 24.2 mph N/A   Clear
1:56 AM 37.0 °F 28.1 °F 24.1 °F 59% 29.61 in 10.0 mi WSW 15.0 mph 25.3 mph N/A   Clear
2:56 AM 36.0 °F 28.0 °F 23.0 °F 59% 29.62 in 10.0 mi WSW 11.5 mph - N/A   Clear
3:56 AM 35.1 °F 27.9 °F 25.0 °F 67% 29.61 in 10.0 mi SW 9.2 mph - N/A   Clear
4:56 AM 37.0 °F 28.9 °F 25.0 °F 62% 29.61 in 10.0 mi WSW 12.7 mph - N/A   Clear
5:56 AM 36.0 °F 26.7 °F 24.1 °F 62% 29.61 in 10.0 mi SW 15.0 mph - N/A   Clear
6:56 AM 36.0 °F 28.0 °F 25.0 °F 64% 29.60 in 10.0 mi WSW 11.5 mph - N/A   Scattered Clouds
7:56 AM 37.9 °F 30.0 °F 26.1 °F 62% 29.60 in 10.0 mi SW 12.7 mph - N/A   Clear
8:56 AM 42.1 °F 33.1 °F 25.0 °F 51% 29.61 in 10.0 mi WSW 20.7 mph 29.9 mph N/A   Clear
9:56 AM 43.0 °F 34.5 °F 25.0 °F 49% 29.61 in 10.0 mi SW 19.6 mph - N/A   Clear
10:56 AM 44.1 °F 35.4 °F 25.0 °F 47% 29.58 in 10.0 mi West 21.9 mph 33.4 mph N/A   Clear
11:56 AM 44.1 °F 36.5 °F 26.1 °F 49% 29.55 in 10.0 mi WSW 17.3 mph 28.8 mph N/A   Overcast
12:56 PM 45.0 °F 38.5 °F 25.0 °F 46% 29.54 in 10.0 mi WSW 13.8 mph 24.2 mph N/A   Overcast
1:56 PM 44.1 °F 35.9 °F 25.0 °F 47% 29.52 in 10.0 mi WSW 19.6 mph 27.6 mph N/A   Overcast
2:56 PM 43.0 °F 36.4 °F 26.1 °F 51% 29.52 in 10.0 mi WSW 12.7 mph - N/A   Overcast
3:56 PM 42.1 °F 37.1 °F 28.0 °F 58% 29.55 in 10.0 mi SW 8.1 mph - N/A   Overcast
4:56 PM 41.0 °F 33.1 °F 28.9 °F 62% 29.58 in 10.0 mi WSW 15.0 mph - N/A   Overcast
5:56 PM 39.9 °F 33.9 °F 28.0 °F 63% 29.61 in 10.0 mi WSW 9.2 mph - N/A   Mostly Cloudy
6:56 PM 36.0 °F 30.3 °F 28.0 °F 73% 29.65 in 10.0 mi WSW 6.9 mph - N/A   Clear
7:56 PM 35.1 °F 31.0 °F 28.9 °F 78% 29.69 in 10.0 mi SW 4.6 mph - N/A   Partly Cloudy
8:56 PM 37.9 °F 33.5 °F 27.0 °F 65% 29.73 in 10.0 mi WNW 5.8 mph - N/A   Overcast
9:56 PM 37.0 °F 30.4 °F 23.0 °F 57% 29.75 in 10.0 mi NNW 9.2 mph 18.4 mph N/A   Partly Cloudy
10:56 PM 35.1 °F 30.1 °F 24.1 °F 64% 29.78 in 10.0 mi NW 5.8 mph - N/A   Clear
11:56 PM 34.0 °F 26.6 °F 19.9 °F 56% 29.82 in 10.0 mi NNW 9.2 mph - N/A   Clear